| time (UTC) | temp F | wind direction | speed MPH | gust MPH | rain 1hr in | rain 24hr in | rain mn in | humidity % | barometer mb |
| 20260510115403 | 54 | 18 | 10.0 | 18.0 | 0.00 | 0.00 | 0.00 | 70 | 1017.1 |
| 20260510114717 | 53 | 26 | 11.0 | 18.0 | 0.00 | 0.00 | 0.00 | 70 | 1017.3 |
| 20260510113603 | 54 | 23 | 11.0 | 18.0 | 0.00 | 0.00 | 0.00 | 69 | 1017.4 |
| 20260510112703 | 54 | 20 | 10.0 | 17.0 | 0.00 | 0.00 | 0.00 | 68 | 1017.4 |
| 20260510111803 | 54 | 24 | 10.0 | 16.0 | 0.00 | 0.00 | 0.00 | 69 | 1017.4 |
| 20260510110903 | 54 | 8 | 10.0 | 15.0 | 0.00 | 0.00 | 0.00 | 71 | 1017.4 |
| 20260510110004 | 54 | 22 | 8.0 | 13.0 | 0.00 | 0.00 | 0.00 | 71 | 1017.4 |
| 20260510105621 | 54 | 23 | 9.0 | 13.0 | 0.00 | 0.00 | 0.00 | 71 | 1017.4 |
| 20260510104503 | 54 | 30 | 8.0 | 17.0 | 0.00 | 0.00 | 0.00 | 72 | 1017.5 |
| 20260510103820 | 54 | 32 | 10.0 | 18.0 | 0.00 | 0.00 | 0.00 | 72 | 1017.5 |
| 20260510102703 | 53 | 20 | 11.0 | 18.0 | 0.00 | 0.00 | 0.00 | 74 | 1017.4 |
| 20260510102020 | 53 | 23 | 10.0 | 18.0 | 0.00 | 0.00 | 0.00 | 74 | 1017.5 |
| 20260510100903 | 54 | 17 | 11.0 | 19.0 | 0.00 | 0.00 | 0.00 | 74 | 1017.5 |
| 20260510100004 | 53 | 20 | 10.0 | 19.0 | 0.00 | 0.00 | 0.00 | 75 | 1017.6 |
| 20260510095403 | 52 | 20 | 11.0 | 19.0 | 0.00 | 0.00 | 0.00 | 75 | 1017.6 |
| 20260510094503 | 53 | 22 | 10.0 | 15.0 | 0.00 | 0.00 | 0.00 | 76 | 1017.6 |
| 20260510093603 | 52 | 16 | 9.0 | 16.0 | 0.00 | 0.00 | 0.00 | 76 | 1017.7 |
| 20260510092703 | 52 | 18 | 9.0 | 16.0 | 0.00 | 0.00 | 0.00 | 75 | 1017.9 |
| 20260510091803 | 52 | 23 | 11.0 | 17.0 | 0.00 | 0.00 | 0.00 | 74 | 1017.9 |
| 20260510090903 | 52 | 24 | 10.0 | 17.0 | 0.00 | 0.00 | 0.00 | 75 | 1017.9 |
| 20260510090003 | 52 | 23 | 9.0 | 18.0 | 0.00 | 0.00 | 0.00 | 75 | 1018.0 |
| 20260510085403 | 52 | 32 | 10.0 | 18.0 | 0.00 | 0.00 | 0.00 | 75 | 1017.9 |
| 20260510084503 | 53 | 31 | 10.0 | 18.0 | 0.00 | 0.00 | 0.00 | 74 | 1017.9 |
| 20260510083822 | 53 | 25 | 11.0 | 18.0 | 0.00 | 0.00 | 0.00 | 74 | 1018.0 |
| 20260510082919 | 53 | 22 | 9.0 | 16.0 | 0.00 | 0.00 | 0.00 | 76 | 1017.9 |
| 20260510081803 | 53 | 27 | 9.0 | 19.0 | 0.00 | 0.00 | 0.00 | 76 | 1017.9 |
| 20260510080904 | 53 | 28 | 10.0 | 19.0 | 0.00 | 0.00 | 0.00 | 76 | 1017.9 |
| 20260510080004 | 53 | 19 | 11.0 | 18.0 | 0.00 | 0.00 | 0.00 | 77 | 1017.9 |
| 20260510075617 | 53 | 17 | 10.0 | 18.0 | 0.00 | 0.00 | 0.00 | 78 | 1018.0 |
| 20260510074503 | 52 | 20 | 10.0 | 17.0 | 0.00 | 0.00 | 0.00 | 79 | 1017.9 |
| 20260510073817 | 52 | 17 | 9.0 | 17.0 | 0.00 | 0.00 | 0.00 | 81 | 1018.2 |
| 20260510072703 | 52 | 23 | 9.0 | 16.0 | 0.00 | 0.00 | 0.00 | 81 | 1018.1 |
| 20260510071803 | 52 | 19 | 9.0 | 17.0 | 0.00 | 0.00 | 0.00 | 81 | 1018.0 |
| 20260510070903 | 52 | 15 | 10.0 | 17.0 | 0.00 | 0.00 | 0.00 | 81 | 1017.9 |
| 20260510070004 | 52 | 14 | 9.0 | 17.0 | 0.00 | 0.00 | 0.00 | 82 | 1017.9 |
| 20260510065403 | 52 | 15 | 10.0 | 18.0 | 0.00 | 0.00 | 0.00 | 83 | 1017.9 |
| 20260510064503 | 52 | 4 | 10.0 | 18.0 | 0.00 | 0.00 | 0.00 | 84 | 1017.8 |
| 20260510063603 | 51 | 14 | 10.0 | 16.0 | 0.00 | 0.00 | 0.00 | 85 | 1017.9 |
| 20260510062920 | 51 | 5 | 10.0 | 16.0 | 0.00 | 0.00 | 0.00 | 85 | 1017.8 |
| 20260510061803 | 51 | 9 | 9.0 | 15.0 | 0.00 | 0.00 | 0.00 | 86 | 1017.7 |
| 20260510060903 | 51 | 8 | 9.0 | 14.0 | 0.00 | 0.00 | 0.00 | 87 | 1017.5 |
| 20260510060004 | 50 | 359 | 8.0 | 14.0 | 0.00 | 0.00 | 0.00 | 88 | 1017.5 |
| 20260510055403 | 50 | 357 | 8.0 | 14.0 | 0.00 | 0.00 | 0.00 | 88 | 1017.5 |
| 20260510054503 | 50 | 357 | 7.0 | 11.0 | 0.00 | 0.00 | 0.00 | 89 | 1017.6 |
| 20260510053603 | 49 | 358 | 6.0 | 10.0 | 0.00 | 0.00 | 0.00 | 89 | 1017.5 |
| 20260510052703 | 48 | 359 | 6.0 | 10.0 | 0.00 | 0.00 | 0.00 | 90 | 1017.4 |
| 20260510052018 | 48 | 3 | 6.0 | 10.0 | 0.00 | 0.00 | 0.00 | 89 | 1017.3 |
| 20260510051120 | 48 | 360 | 6.0 | 11.0 | 0.00 | 0.00 | 0.00 | 89 | 1017.4 |
| 20260510050218 | 48 | 357 | 7.0 | 14.0 | 0.00 | 0.00 | 0.00 | 89 | 1017.3 |
| 20260510045403 | 48 | 12 | 7.0 | 14.0 | 0.00 | 0.00 | 0.00 | 90 | 1017.3 |
| 20260510044503 | 47 | 22 | 7.0 | 12.0 | 0.00 | 0.00 | 0.00 | 90 | 1017.3 |
| 20260510043603 | 47 | 22 | 6.0 | 11.0 | 0.00 | 0.00 | 0.00 | 90 | 1017.3 |
| 20260510042703 | 47 | 20 | 6.0 | 11.0 | 0.00 | 0.00 | 0.00 | 89 | 1017.3 |
| 20260510041804 | 47 | 18 | 6.0 | 10.0 | 0.00 | 0.00 | 0.00 | 89 | 1017.4 |
| 20260510040903 | 47 | 18 | 5.0 | 11.0 | 0.00 | 0.00 | 0.00 | 89 | 1017.5 |
| 20260510040004 | 47 | 9 | 6.0 | 11.0 | 0.00 | 0.00 | 0.00 | 89 | 1017.6 |
| 20260510035403 | 47 | 3 | 7.0 | 14.0 | 0.00 | 0.00 | 0.00 | 89 | 1017.6 |
| 20260510034717 | 47 | 1 | 7.0 | 14.0 | 0.00 | 0.00 | 0.00 | 89 | 1017.7 |
| 20260510033820 | 47 | 1 | 8.0 | 13.0 | 0.00 | 0.00 | 0.00 | 88 | 1017.7 |
| 20260510032703 | 48 | 358 | 9.0 | 13.0 | 0.00 | 0.00 | 0.00 | 88 | 1017.9 |
| 20260510031803 | 48 | 356 | 8.0 | 13.0 | 0.00 | 0.00 | 0.00 | 87 | 1017.9 |
| 20260510030903 | 48 | 357 | 8.0 | 12.0 | 0.00 | 0.00 | 0.00 | 87 | 1017.8 |
| 20260510030004 | 49 | 9 | 8.0 | 16.0 | 0.00 | 0.00 | 0.00 | 86 | 1017.7 |
| 20260510025404 | 49 | 16 | 8.0 | 16.0 | 0.00 | 0.00 | 0.00 | 86 | 1017.6 |
| 20260510024718 | 49 | 17 | 9.0 | 16.0 | 0.00 | 0.00 | 0.00 | 86 | 1017.8 |
| 20260510023603 | 50 | 11 | 9.0 | 15.0 | 0.00 | 0.00 | 0.00 | 87 | 1018.1 |
| 20260510022703 | 50 | 3 | 9.0 | 15.0 | 0.00 | 0.00 | 0.00 | 88 | 1018.0 |
| 20260510021803 | 49 | 2 | 8.0 | 14.0 | 0.00 | 0.00 | 0.00 | 88 | 1017.9 |
| 20260510020903 | 49 | 360 | 7.0 | 12.0 | 0.00 | 0.00 | 0.00 | 88 | 1018.0 |
| 20260510020004 | 49 | 358 | 7.0 | 12.0 | 0.00 | 0.00 | 0.00 | 87 | 1017.8 |
| 20260510015621 | 49 | 360 | 7.0 | 12.0 | 0.00 | 0.00 | 0.00 | 87 | 1017.8 |
| 20260510014503 | 49 | 354 | 7.0 | 12.0 | 0.00 | 0.00 | 0.00 | 86 | 1017.6 |
| 20260510013821 | 50 | 356 | 8.0 | 15.0 | 0.00 | 0.00 | 0.00 | 86 | 1017.8 |
| 20260510012703 | 50 | 5 | 10.0 | 15.0 | 0.00 | 0.00 | 0.00 | 87 | 1017.9 |
| 20260510011803 | 50 | 6 | 8.0 | 15.0 | 0.00 | 0.00 | 0.00 | 87 | 1017.8 |
| 20260510011118 | 50 | 1 | 9.0 | 15.0 | 0.00 | 0.00 | 0.00 | 87 | 1018.0 |
| 20260510010220 | 50 | 2 | 9.0 | 15.0 | 0.00 | 0.00 | 0.00 | 87 | 1018.0 |
| 20260510005403 | 50 | 4 | 7.0 | 13.0 | 0.00 | 0.00 | 0.00 | 87 | 1018.0 |
| 20260510004719 | 50 | 6 | 6.0 | 11.0 | 0.00 | 0.00 | 0.00 | 87 | 1018.1 |
| 20260510003603 | 50 | 12 | 6.0 | 12.0 | 0.00 | 0.00 | 0.00 | 88 | 1018.0 |
| 20260510002703 | 50 | 14 | 6.0 | 13.0 | 0.00 | 0.00 | 0.00 | 88 | 1018.0 |
| 20260510001803 | 50 | 12 | 8.0 | 13.0 | 0.00 | 0.00 | 0.00 | 87 | 1018.1 |
| 20260510000903 | 50 | 10 | 7.0 | 13.0 | 0.00 | 0.00 | 0.00 | 88 | 1018.1 |
| 20260510000004 | 50 | 3 | 7.0 | 13.0 | 0.00 | 0.00 | 0.00 | 87 | 1018.1 |
| 20260509235403 | 50 | 2 | 8.0 | 12.0 | 0.00 | 0.00 | 0.00 | 87 | 1018.2 |
| 20260509234503 | 50 | 9 | 7.0 | 12.0 | 0.00 | 0.00 | 0.00 | 88 | 1018.0 |
| 20260509233603 | 49 | 8 | 7.0 | 12.0 | 0.00 | 0.00 | 0.00 | 87 | 1018.0 |
| 20260509232703 | 49 | 358 | 7.0 | 12.0 | 0.00 | 0.00 | 0.00 | 87 | 1018.0 |
| 20260509232017 | 49 | 353 | 6.0 | 11.0 | 0.00 | 0.00 | 0.00 | 86 | 1018.1 |
| 20260509230903 | 49 | 4 | 4.0 | 7.0 | 0.00 | 0.00 | 0.00 | 85 | 1018.3 |
| 20260509230009 | 49 | 11 | 3.0 | 8.0 | 0.00 | 0.00 | 0.00 | 84 | 1018.3 |
| 20260509225618 | 49 | 12 | 3.0 | 8.0 | 0.00 | 0.00 | 0.00 | 84 | 1018.4 |
| 20260509224503 | 50 | 21 | 3.0 | 8.0 | 0.00 | 0.00 | 0.00 | 84 | 1018.2 |
| 20260509223818 | 50 | 26 | 4.0 | 6.0 | 0.00 | 0.00 | 0.00 | 83 | 1018.2 |
| 20260509222703 | 50 | 32 | 4.0 | 8.0 | 0.00 | 0.00 | 0.00 | 82 | 1018.1 |
| 20260509221803 | 50 | 22 | 4.0 | 8.0 | 0.00 | 0.00 | 0.00 | 82 | 1018.1 |
| 20260509220903 | 50 | 12 | 4.0 | 8.0 | 0.00 | 0.00 | 0.00 | 81 | 1018.0 |
| 20260509220003 | 50 | 28 | 2.0 | 4.0 | 0.00 | 0.00 | 0.00 | 79 | 1017.9 |
| 20260509215403 | 50 | 33 | 1.0 | 4.0 | 0.00 | 0.00 | 0.00 | 79 | 1017.9 |
| 20260509214504 | 50 | 32 | 1.0 | 4.0 | 0.00 | 0.00 | 0.00 | 77 | 1017.9 |
| 20260509213818 | 50 | 28 | 1.0 | 4.0 | 0.00 | 0.00 | 0.00 | 75 | 1017.8 |
| 20260509212703 | 51 | 30 | 1.0 | 3.0 | 0.00 | 0.00 | 0.00 | 73 | 1017.7 |
| 20260509211803 | 51 | 30 | 1.0 | 3.0 | 0.00 | 0.00 | 0.00 | 73 | 1017.7 |
| 20260509210903 | 52 | 31 | 1.0 | 5.0 | 0.00 | 0.00 | 0.00 | 71 | 1017.7 |
| 20260509210003 | 52 | 39 | 2.0 | 5.0 | 0.00 | 0.00 | 0.00 | 70 | 1017.6 |
| 20260509205403 | 52 | 35 | 2.0 | 6.0 | 0.00 | 0.00 | 0.00 | 69 | 1017.6 |
| 20260509204503 | 52 | 26 | 2.0 | 6.0 | 0.00 | 0.00 | 0.00 | 68 | 1017.6 |
| 20260509203819 | 52 | 28 | 2.0 | 6.0 | 0.00 | 0.00 | 0.00 | 67 | 1017.6 |
| 20260509202703 | 53 | 27 | 1.0 | 5.0 | 0.00 | 0.00 | 0.00 | 65 | 1017.4 |
| 20260509201803 | 53 | 24 | 1.0 | 5.0 | 0.00 | 0.00 | 0.00 | 64 | 1017.5 |
| 20260509201121 | 53 | 15 | 2.0 | 5.0 | 0.00 | 0.00 | 0.00 | 63 | 1017.3 |
| 20260509200004 | 54 | 27 | 3.0 | 5.0 | 0.00 | 0.00 | 0.00 | 61 | 1017.3 |
| 20260509195403 | 55 | 37 | 2.0 | 4.0 | 0.00 | 0.00 | 0.00 | 60 | 1017.5 |
| 20260509194503 | 56 | 48 | 1.0 | 4.0 | 0.00 | 0.00 | 0.00 | 59 | 1017.5 |
| 20260509193820 | 56 | 47 | 2.0 | 6.0 | 0.00 | 0.00 | 0.00 | 58 | 1017.4 |
| 20260509192703 | 57 | 52 | 3.0 | 7.0 | 0.00 | 0.00 | 0.00 | 57 | 1016.9 |
| 20260509191803 | 58 | 46 | 3.0 | 7.0 | 0.00 | 0.00 | 0.00 | 55 | 1017.0 |
| 20260509191117 | 58 | 48 | 4.0 | 7.0 | 0.00 | 0.00 | 0.00 | 55 | 1017.1 |
| 20260509190004 | 59 | 52 | 3.0 | 6.0 | 0.00 | 0.00 | 0.00 | 53 | 1017.1 |
| 20260509185403 | 60 | 52 | 3.0 | 7.0 | 0.00 | 0.00 | 0.00 | 53 | 1017.0 |
| 20260509184503 | 60 | 54 | 4.0 | 7.0 | 0.00 | 0.00 | 0.00 | 52 | 1016.9 |
| 20260509183820 | 60 | 52 | 4.0 | 11.0 | 0.00 | 0.00 | 0.00 | 51 | 1016.9 |
| 20260509182703 | 60 | 53 | 5.0 | 12.0 | 0.00 | 0.00 | 0.00 | 51 | 1016.8 |
| 20260509182020 | 60 | 42 | 5.0 | 12.0 | 0.00 | 0.00 | 0.00 | 50 | 1016.7 |
| 20260509181117 | 61 | 38 | 6.0 | 12.0 | 0.00 | 0.00 | 0.00 | 49 | 1016.7 |
| 20260509180220 | 61 | 54 | 6.0 | 10.0 | 0.00 | 0.00 | 0.00 | 48 | 1016.7 |
| 20260509175403 | 62 | 54 | 7.0 | 12.0 | 0.00 | 0.00 | 0.00 | 46 | 1016.9 |
| 20260509174503 | 62 | 52 | 6.0 | 12.0 | 0.00 | 0.00 | 0.00 | 46 | 1017.1 |
| 20260509173603 | 63 | 56 | 7.0 | 11.0 | 0.00 | 0.00 | 0.00 | 45 | 1017.1 |
| 20260509172703 | 64 | 56 | 6.0 | 11.0 | 0.00 | 0.00 | 0.00 | 44 | 1017.0 |
| 20260509171803 | 64 | 51 | 6.0 | 10.0 | 0.00 | 0.00 | 0.00 | 45 | 1017.1 |
| 20260509171118 | 64 | 49 | 6.0 | 10.0 | 0.00 | 0.00 | 0.00 | 45 | 1017.1 |
| 20260509170003 | 64 | 41 | 6.0 | 13.0 | 0.00 | 0.00 | 0.00 | 44 | 1017.0 |
| 20260509165403 | 64 | 49 | 6.0 | 13.0 | 0.00 | 0.00 | 0.00 | 43 | 1016.9 |
| 20260509164719 | 65 | 53 | 6.0 | 11.0 | 0.00 | 0.00 | 0.00 | 43 | 1017.1 |
| 20260509163603 | 66 | 52 | 5.0 | 10.0 | 0.00 | 0.00 | 0.00 | 42 | 1017.2 |
| 20260509162703 | 67 | 52 | 6.0 | 12.0 | 0.00 | 0.00 | 0.00 | 40 | 1017.0 |
| 20260509162021 | 68 | 55 | 5.0 | 12.0 | 0.00 | 0.00 | 0.00 | 39 | 1017.1 |
| 20260509160903 | 69 | 68 | 4.0 | 9.0 | 0.00 | 0.00 | 0.00 | 40 | 1017.2 |
| 20260509160003 | 68 | 64 | 3.0 | 12.0 | 0.00 | 0.00 | 0.00 | 38 | 1017.1 |
| 20260509155403 | 69 | 49 | 6.0 | 13.0 | 0.00 | 0.00 | 0.00 | 39 | 1017.0 |
| 20260509154503 | 71 | 48 | 6.0 | 13.0 | 0.00 | 0.00 | 0.00 | 38 | 1017.0 |
| 20260509153603 | 72 | 35 | 7.0 | 13.0 | 0.00 | 0.00 | 0.00 | 36 | 1016.9 |
| 20260509152703 | 72 | 50 | 5.0 | 14.0 | 0.00 | 0.00 | 0.00 | 38 | 1016.8 |
| 20260509152017 | 71 | 63 | 6.0 | 14.0 | 0.00 | 0.00 | 0.00 | 37 | 1016.9 |
| 20260509150903 | 71 | 46 | 8.0 | 13.0 | 0.00 | 0.00 | 0.00 | 37 | 1016.8 |
| 20260509150222 | 72 | 37 | 9.0 | 16.0 | 0.00 | 0.00 | 0.00 | 38 | 1016.6 |
| 20260509145403 | 71 | 48 | 9.0 | 16.0 | 0.00 | 0.00 | 0.00 | 38 | 1016.6 |
| 20260509144503 | 72 | 51 | 7.0 | 16.0 | 0.00 | 0.00 | 0.00 | 36 | 1016.7 |
| 20260509143603 | 73 | 49 | 7.0 | 16.0 | 0.00 | 0.00 | 0.00 | 35 | 1016.8 |
| 20260509142703 | 72 | 47 | 6.0 | 15.0 | 0.00 | 0.00 | 0.00 | 37 | 1016.8 |
| 20260509141803 | 72 | 43 | 8.0 | 15.0 | 0.00 | 0.00 | 0.00 | 37 | 1016.8 |
| 20260509140903 | 72 | 57 | 5.0 | 12.0 | 0.00 | 0.00 | 0.00 | 35 | 1017.1 |
| 20260509140004 | 72 | 51 | 6.0 | 13.0 | 0.00 | 0.00 | 0.00 | 35 | 1017.2 |
| 20260509135403 | 72 | 51 | 6.0 | 13.0 | 0.00 | 0.00 | 0.00 | 36 | 1017.3 |
| 20260509134503 | 72 | 56 | 6.0 | 13.0 | 0.00 | 0.00 | 0.00 | 35 | 1017.3 |
| 20260509133603 | 71 | 54 | 5.0 | 13.0 | 0.00 | 0.00 | 0.00 | 36 | 1017.4 |
| 20260509132703 | 72 | 46 | 5.0 | 13.0 | 0.00 | 0.00 | 0.00 | 34 | 1017.4 |
| 20260509132018 | 72 | 49 | 5.0 | 13.0 | 0.00 | 0.00 | 0.00 | 36 | 1017.5 |
| 20260509130903 | 72 | 75 | 3.0 | 14.0 | 0.00 | 0.00 | 0.00 | 34 | 1017.7 |
| 20260509130004 | 74 | 59 | 5.0 | 14.0 | 0.00 | 0.00 | 0.00 | 35 | 1017.8 |
| 20260509125403 | 73 | 52 | 5.0 | 14.0 | 0.00 | 0.00 | 0.00 | 36 | 1017.7 |
| 20260509124503 | 73 | 60 | 4.0 | 12.0 | 0.00 | 0.00 | 0.00 | 35 | 1017.8 |
| 20260509123603 | 74 | 48 | 6.0 | 12.0 | 0.00 | 0.00 | 0.00 | 36 | 1017.8 |
| 20260509122703 | 74 | 38 | 5.0 | 12.0 | 0.00 | 0.00 | 0.00 | 35 | 1018.0 |
| 20260509121803 | 73 | 337 | 6.0 | 11.0 | 0.00 | 0.00 | 0.00 | 36 | 1018.0 |
| 20260509120903 | 71 | 25 | 4.0 | 12.0 | 0.00 | 0.00 | 0.00 | 37 | 1018.1 |
| 20260509120003 | 74 | 55 | 4.0 | 12.0 | 0.00 | 0.00 | 0.00 | 37 | 1018.1 |